Hoonah, AK

3:38 AM AKDT on July 26, 2017 (GMT -0800)
Hoonah

Weather History for PAOH - February, 2014

Change the Weather History Date:

Friday, February 21, 2014

  Actual Average Record
Temperature  
Mean Temperature 22 °F -  
Max Temperature 32 °F 35 °F 46 °F (1998)
Min Temperature 12 °F 28 °F 12 °F (2014)
Degree Days  
Heating Degree Days 43    
Moisture  
Dew Point 23 °F    
Average Humidity 99    
Maximum Humidity 100    
Minimum Humidity 92    
Precipitation  
Precipitation 0.00 in - - ()
Sea Level Pressure  
Sea Level Pressure 30.29 in    
Wind  
Wind Speed 2 mph (East)    
Max Wind Speed 8 mph    
Max Gust Speed -    
Visibility 10 miles    
Events Snow    
Averages and records for this station are not official NWS values.
T = Trace of Precipitation, MM = Missing Value Source: NWS Daily Summary

Daily Weather History Graph

Daily Weather History Graph

Search for Another Location

Airport or City:

Trip Planner

Search our weather history database for the weather conditions in past years. The results will help you decide how hot, cold, wet, or windy it might be!

Date:

Astronomy

Feb. 21, 2014 Rise Set
Actual Time 7:17 AM AKST 5:14 PM AKST
Civil Twilight 6:36 AM AKST 5:54 PM AKST
Nautical Twilight 5:51 AM AKST 6:40 PM AKST
Astronomical Twilight 5:05 AM AKST 7:25 PM AKST
Moon 12:39 AM AKST (2/21) 9:18 AM AKST (2/21)
Length of Visible Light 11h 17m
Length of Day
9h 56m
Waning Gibbous, 59% of the Moon is Illuminated
Feb 21
Waning Gibbous
Feb 22
Last Quarter
Feb 28
New
Mar 8
First Quarter
Mar 16
Full

Hourly Weather History & Observations

Time (AKST) Temp. Windchill Dew Point Humidity Pressure Visibility Wind Dir Wind Speed Gust Speed Precip Events Conditions
12:56 AM 19.0 °F - 19.0 °F 100% 30.20 in 10.0 mi Calm Calm - N/A   Mostly Cloudy
1:56 AM 16.2 °F 10.6 °F 16.2 °F 100% 30.22 in 10.0 mi East 3.5 mph - N/A   Clear
3:56 AM 14.0 °F - 14.0 °F 100% 30.24 in 10.0 mi Calm Calm - N/A   Partly Cloudy
4:20 AM 12.2 °F - 12.2 °F 100% 30.24 in 10.0 mi Calm Calm - N/A   Mostly Cloudy
4:34 AM 12.2 °F 6.1 °F 12.2 °F 100% 30.24 in 10.0 mi East 3.5 mph - N/A   Scattered Clouds
4:56 AM 12.0 °F 5.9 °F 12.0 °F 100% 30.25 in 10.0 mi East 3.5 mph - N/A   Partly Cloudy
5:22 AM 12.2 °F - 12.2 °F 100% 30.25 in 10.0 mi Calm Calm - N/A   Mostly Cloudy
5:56 AM 14.0 °F - 14.0 °F 100% 30.25 in 10.0 mi Calm Calm - N/A   Overcast
6:56 AM 16.2 °F - 16.2 °F 100% 30.26 in 10.0 mi Calm Calm - N/A   Overcast
7:43 AM 17.6 °F - 17.6 °F 100% 30.26 in 6.0 mi Calm Calm - 0.00 in Snow Light Snow
7:56 AM 18.1 °F - 18.1 °F 100% 30.27 in 10.0 mi Calm Calm - 0.00 in   Overcast
8:56 AM 19.4 °F - 19.4 °F 100% 30.27 in 10.0 mi Calm Calm - N/A   Mostly Cloudy
9:56 AM 23.0 °F - 23.0 °F 100% 30.28 in 6.0 mi Calm Calm - 0.00 in   Overcast
10:56 AM 27.1 °F - 27.1 °F 100% 30.29 in 9.0 mi Calm Calm - 0.00 in   Overcast
11:56 AM 31.1 °F 25.4 °F 31.1 °F 100% 30.30 in 10.0 mi East 5.8 mph - 0.00 in   Overcast
12:56 PM 32.0 °F 26.4 °F 32.0 °F 100% 30.30 in 10.0 mi East 5.8 mph - N/A   Overcast
1:36 PM 32.0 °F 25.6 °F 30.2 °F 93% 30.29 in 10.0 mi ENE 6.9 mph - N/A   Overcast
1:56 PM 32.0 °F 24.8 °F 30.0 °F 92% 30.30 in 10.0 mi East 8.1 mph - N/A   Overcast
2:56 PM 32.0 °F 25.6 °F 31.1 °F 96% 30.30 in 10.0 mi East 6.9 mph - 0.00 in   Overcast
3:56 PM 32.0 °F 26.4 °F 31.1 °F 96% 30.30 in 10.0 mi East 5.8 mph - N/A   Overcast
4:56 PM 31.1 °F 25.4 °F 31.1 °F 100% 30.31 in 10.0 mi East 5.8 mph - N/A   Overcast
5:56 PM 29.1 °F - 29.1 °F 100% 30.31 in 10.0 mi Calm Calm - N/A   Overcast
6:37 PM 28.4 °F - 28.4 °F 100% 30.31 in 10.0 mi Calm Calm - N/A   Mostly Cloudy
6:56 PM 28.0 °F - 28.0 °F 100% 30.32 in 10.0 mi Calm Calm - N/A   Overcast
7:56 PM 29.1 °F 25.4 °F 29.1 °F 100% 30.33 in 10.0 mi ENE 3.5 mph - N/A   Overcast
8:56 PM 29.1 °F 25.4 °F 29.1 °F 100% 30.33 in 10.0 mi ESE 3.5 mph - N/A   Overcast
9:56 PM 30.0 °F 26.5 °F 28.0 °F 92% 30.34 in 10.0 mi ENE 3.5 mph - N/A   Overcast
10:56 PM 27.1 °F - 27.1 °F 100% 30.35 in 10.0 mi Calm Calm - N/A   Overcast
11:27 PM 28.4 °F - 28.4 °F 100% 30.35 in 10.0 mi Calm Calm - N/A   Mostly Cloudy
11:56 PM 26.6 °F - 26.6 °F 100% 30.36 in 10.0 mi Calm Calm - N/A   Overcast